This is the latest recevied weather packets stored in our database for station/object KI4BIY. If no packets are shown the sender has not sent any weather packets the latest 10 day(s).
| Time | Temp. | Humidity | Pressure | Rain* | Wind** | Luminosity | Snow |
|---|---|---|---|---|---|---|---|
| 1778266450 | 24.44° C | 43% | 1012.2 hPa | 0 mm | - | 571 W/m² | - |
| 1778266148 | 24.44° C | 46% | 1012.5 hPa | 0 mm | - | 655 W/m² | - |
| 1778265845 | 24.44° C | 49% | 1012.2 hPa | 0 mm | - | 722 W/m² | - |
| 1778265541 | 24.44° C | 45% | 1012.5 hPa | 0 mm | - | 715 W/m² | - |
| 1778265238 | 24.44° C | 47% | 1012.6 hPa | 0 mm | - | 720 W/m² | - |
| 1778264933 | 24.44° C | 45% | 1012.5 hPa | 0 mm | - | 734 W/m² | - |
| 1778264631 | 24.44° C | 49% | 1012.5 hPa | 0 mm | - | 757 W/m² | - |
| 1778264326 | 25° C | 46% | 1013.1 hPa | 0 mm | - | 756 W/m² | - |
| 1778264023 | 23.89° C | 45% | 1012.8 hPa | 0 mm | - | 761 W/m² | - |
| 1778263721 | 24.44° C | 42% | 1012.8 hPa | 0 mm | - | 735 W/m² | - |
| 1778263417 | 23.89° C | 48% | 1013 hPa | 0 mm | - | 678 W/m² | - |
| 1778263113 | 23.89° C | 45% | 1013.4 hPa | 0 mm | - | 643 W/m² | - |
| 1778262810 | 23.89° C | 43% | 1013 hPa | 0 mm | - | 668 W/m² | - |
| 1778262508 | 23.89° C | 41% | 1013.1 hPa | 0 mm | - | 778 W/m² | - |
| 1778262205 | 23.33° C | 46% | 1013.5 hPa | 0 mm | - | 769 W/m² | - |
| 1778261901 | 23.33° C | 44% | 1013.5 hPa | 0 mm | - | 747 W/m² | - |
| 1778261599 | 23.89° C | 45% | 1013.3 hPa | 0 mm | - | 739 W/m² | - |
| 1778261294 | 23.89° C | 47% | 1014 hPa | 0 mm | - | 695 W/m² | - |
| 1778260992 | 23.89° C | 46% | 1013.8 hPa | 0 mm | - | 741 W/m² | - |
| 1778260688 | 23.33° C | 45% | 1014 hPa | 0 mm | - | 771 W/m² | - |
| 1778260384 | 23.33° C | 52% | 1014 hPa | 0 mm | - | 725 W/m² | - |
| 1778260081 | 23.33° C | 46% | 1014.3 hPa | 0 mm | - | 524 W/m² | - |
| 1778259779 | 23.33° C | 46% | 1014.1 hPa | 0 mm | - | 481 W/m² | - |
| 1778259475 | 23.89° C | 46% | 1014.1 hPa | 0 mm | - | 655 W/m² | - |
| 1778259173 | 23.33° C | 46% | 1014.4 hPa | 0 mm | - | 708 W/m² | - |
* Rain latest hour (hover to see other rain measurements)
** Current wind speed in m/s (hover to see current wind gust speed)